| time (UTC) | temp C | wind direction | speed KPH | gust KPH | rain 1hr cm | rain 24hr cm | rain mn cm | humidity % | barometer mb |
| 20260509213123 | 33 | 160 | 0.0 | 3.2 | 0.00 | 0.00 | 0.00 | 35 | 1009.9 |
| 20260509212123 | 33 | 67 | 1.6 | 6.4 | 0.00 | 0.00 | 0.00 | 34 | 1010.0 |
| 20260509211122 | 35 | 88 | 8.0 | 12.9 | 0.00 | 0.00 | 0.00 | 31 | 1010.2 |
| 20260509210124 | 33 | 76 | 1.6 | 3.2 | 0.00 | 0.00 | 0.00 | 31 | 1010.4 |
| 20260509205222 | 34 | 24 | 6.4 | 9.7 | 0.00 | 0.00 | 0.00 | 28 | 1010.5 |
| 20260509203225 | 32 | 19 | 4.8 | 6.4 | 0.00 | 0.00 | 0.00 | 32 | 1010.8 |
| 20260509202322 | 33 | 91 | 3.2 | 6.4 | 0.00 | 0.00 | 0.00 | 28 | 1010.9 |
| 20260509200323 | 32 | 16 | 6.4 | 6.4 | 0.00 | 0.00 | 0.00 | 32 | 1011.2 |
| 20260509195323 | 32 | 15 | 4.8 | 9.7 | 0.00 | 0.00 | 0.00 | 33 | 1011.3 |
| 20260509193323 | 31 | 56 | 6.4 | 11.3 | 0.00 | 0.00 | 0.00 | 40 | 1011.5 |
| 20260509190424 | 31 | 89 | 4.8 | 8.0 | 0.00 | 0.00 | 0.00 | 43 | 1011.7 |
| 20260509185522 | 30 | 51 | 4.8 | 6.4 | 0.00 | 0.00 | 0.00 | 45 | 1011.7 |
| 20260509184523 | 30 | 4 | 1.6 | 9.7 | 0.00 | 0.00 | 0.00 | 46 | 1011.7 |
| 20260509182625 | 30 | 357 | 6.4 | 8.0 | 0.00 | 0.00 | 0.00 | 47 | 1012.0 |
| 20260509181624 | 29 | 64 | 3.2 | 8.0 | 0.00 | 0.00 | 0.00 | 47 | 1012.1 |
| 20260509175723 | 30 | 51 | 9.7 | 12.9 | 0.00 | 0.00 | 0.00 | 46 | 1012.2 |
| 20260509174723 | 30 | 32 | 8.0 | 9.7 | 0.00 | 0.00 | 0.00 | 44 | 1012.3 |
| 20260509173724 | 30 | 64 | 1.6 | 4.8 | 0.00 | 0.00 | 0.00 | 46 | 1012.3 |
| 20260509172822 | 29 | 287 | 8.0 | 11.3 | 0.00 | 0.00 | 0.00 | 47 | 1012.6 |
| 20260509171823 | 28 | 304 | 4.8 | 6.4 | 0.00 | 0.00 | 0.00 | 48 | 1012.7 |
| 20260509170921 | 28 | 294 | 6.4 | 9.7 | 0.00 | 0.00 | 0.00 | 48 | 1012.6 |
| 20260509165925 | 28 | 345 | 6.4 | 11.3 | 0.00 | 0.00 | 0.00 | 49 | 1012.6 |
| 20260509165023 | 28 | 335 | 4.8 | 9.7 | 0.00 | 0.00 | 0.00 | 49 | 1012.7 |
| 20260509163024 | 28 | 322 | 8.0 | 16.1 | 0.00 | 0.00 | 0.00 | 51 | 1012.9 |
| 20260509161123 | 27 | 42 | 4.8 | 6.4 | 0.00 | 0.00 | 0.00 | 56 | 1013.0 |
| 20260509160222 | 27 | 21 | 6.4 | 9.7 | 0.00 | 0.00 | 0.00 | 57 | 1013.0 |
| 20260509155223 | 26 | 26 | 8.0 | 12.9 | 0.00 | 0.00 | 0.00 | 58 | 1012.9 |
| 20260509154222 | 26 | 49 | 9.7 | 12.9 | 0.00 | 0.00 | 0.00 | 58 | 1012.9 |
| 20260509153226 | 25 | 22 | 8.0 | 11.3 | 0.00 | 0.00 | 0.00 | 59 | 1012.8 |
| 20260509152223 | 26 | 17 | 9.7 | 12.9 | 0.00 | 0.00 | 0.00 | 58 | 1012.7 |
| 20260509151222 | 25 | 7 | 8.0 | 12.9 | 0.00 | 0.00 | 0.00 | 59 | 1012.8 |
| 20260509145222 | 25 | 334 | 6.4 | 12.9 | 0.00 | 0.00 | 0.00 | 62 | 1012.8 |
| 20260509143322 | 23 | 28 | 8.0 | 9.7 | 0.00 | 0.00 | 0.00 | 66 | 1012.8 |
| 20260509142324 | 23 | 335 | 4.8 | 11.3 | 0.00 | 0.00 | 0.00 | 69 | 1013.0 |
| 20260509141327 | 23 | 344 | 4.8 | 6.4 | 0.00 | 0.00 | 0.00 | 72 | 1013.1 |
| 20260509135421 | 22 | 299 | 4.8 | 9.7 | 0.00 | 0.00 | 0.00 | 75 | 1013.2 |
| 20260509133424 | 21 | 309 | 8.0 | 11.3 | 0.00 | 0.00 | 0.00 | 74 | 1013.0 |
| 20260509132422 | 21 | 313 | 6.4 | 12.9 | 0.00 | 0.00 | 0.00 | 74 | 1012.9 |
| 20260509131423 | 21 | 315 | 8.0 | 14.5 | 0.00 | 0.00 | 0.00 | 74 | 1012.9 |
| 20260509130424 | 20 | 12 | 3.2 | 6.4 | 0.00 | 0.00 | 0.00 | 75 | 1013.0 |
| 20260509124524 | 20 | 324 | 4.8 | 9.7 | 0.00 | 0.00 | 0.00 | 74 | 1013.0 |
| 20260509123524 | 20 | 318 | 6.4 | 9.7 | 0.00 | 0.00 | 0.00 | 74 | 1012.9 |
| 20260509122623 | 20 | 322 | 3.2 | 8.0 | 0.00 | 0.00 | 0.00 | 75 | 1012.7 |
| 20260509121623 | 20 | 350 | 1.6 | 4.8 | 0.00 | 0.00 | 0.00 | 76 | 1012.7 |
| 20260509120623 | 20 | 12 | 4.8 | 9.7 | 0.00 | 0.00 | 0.00 | 77 | 1012.5 |
| 20260509114722 | 19 | 343 | 6.4 | 12.9 | 0.00 | 0.03 | 0.00 | 77 | 1012.5 |
| 20260509113723 | 19 | 1 | 3.2 | 4.8 | 0.00 | 0.03 | 0.00 | 76 | 1012.2 |
| 20260509112723 | 20 | 17 | 1.6 | 3.2 | 0.00 | 0.03 | 0.00 | 76 | 1011.9 |
| 20260509111723 | 20 | 90 | 1.6 | 1.6 | 0.00 | 0.03 | 0.00 | 75 | 1011.7 |
| 20260509110725 | 20 | 320 | 0.0 | 1.6 | 0.00 | 0.03 | 0.00 | 75 | 1011.6 |
| 20260509105822 | 20 | 281 | 3.2 | 6.4 | 0.00 | 0.03 | 0.00 | 74 | 1011.5 |
| 20260509103824 | 20 | 269 | 8.0 | 16.1 | 0.00 | 0.03 | 0.00 | 75 | 1011.7 |
| 20260509102824 | 20 | 271 | 6.4 | 8.0 | 0.00 | 0.03 | 0.00 | 75 | 1011.7 |
| 20260509101823 | 20 | 299 | 1.6 | 6.4 | 0.00 | 0.03 | 0.00 | 76 | 1011.6 |
| 20260509101725 | 20 | 254 | 1.6 | 3.2 | 0.00 | 0.03 | 0.00 | 76 | 1011.6 |
| 20260509100822 | 20 | 24 | 3.2 | 6.4 | 0.00 | 0.03 | 0.00 | 77 | 1011.6 |
| 20260509095823 | 20 | 358 | 6.4 | 9.7 | 0.00 | 0.03 | 0.00 | 77 | 1011.6 |
| 20260509094823 | 20 | 356 | 4.8 | 8.0 | 0.00 | 0.03 | 0.00 | 78 | 1011.6 |
| 20260509093922 | 21 | 302 | 11.3 | 17.7 | 0.00 | 0.03 | 0.00 | 81 | 1011.4 |
| 20260509092923 | 20 | 298 | 9.7 | 14.5 | 0.00 | 0.03 | 0.00 | 84 | 1009.6 |
| 20260509091923 | 20 | 183 | 9.7 | 16.1 | 0.00 | 0.03 | 0.00 | 84 | 1008.5 |
| 20260509090922 | 20 | 173 | 12.9 | 19.3 | 0.00 | 0.03 | 0.00 | 84 | 1008.5 |
| 20260509090021 | 20 | 198 | 14.5 | 22.5 | 0.00 | 0.03 | 0.00 | 84 | 1008.9 |
| 20260509085022 | 20 | 183 | 17.7 | 25.7 | 0.00 | 0.03 | 0.00 | 84 | 1009.0 |
| 20260509084023 | 20 | 182 | 14.5 | 20.9 | 0.00 | 0.03 | 0.00 | 83 | 1009.1 |
| 20260509083023 | 20 | 195 | 14.5 | 22.5 | 0.00 | 0.03 | 0.00 | 82 | 1009.4 |
| 20260509082121 | 20 | 190 | 11.3 | 20.9 | 0.00 | 0.03 | 0.00 | 83 | 1009.7 |
| 20260509081122 | 20 | 194 | 11.3 | 20.9 | 0.00 | 0.03 | 0.00 | 84 | 1010.1 |
| 20260509080122 | 20 | 188 | 12.9 | 17.7 | 0.00 | 0.03 | 0.00 | 83 | 1010.6 |
| 20260509075123 | 20 | 154 | 4.8 | 8.0 | 0.00 | 0.03 | 0.00 | 82 | 1010.8 |
| 20260509074124 | 20 | 152 | 6.4 | 9.7 | 0.00 | 0.03 | 0.00 | 82 | 1011.0 |
| 20260509073122 | 20 | 162 | 6.4 | 9.7 | 0.00 | 0.03 | 0.00 | 83 | 1011.9 |
| 20260509071124 | 21 | 227 | 8.0 | 11.3 | 0.00 | 0.03 | 0.00 | 83 | 1012.9 |
| 20260509070222 | 21 | 235 | 4.8 | 8.0 | 0.00 | 0.03 | 0.00 | 83 | 1013.5 |
| 20260509065222 | 21 | 281 | 9.7 | 17.7 | 0.00 | 0.03 | 0.00 | 84 | 1014.3 |
| 20260509064222 | 21 | 275 | 8.0 | 11.3 | 0.00 | 0.03 | 0.00 | 84 | 1014.0 |
| 20260509063222 | 20 | 285 | 4.8 | 9.7 | 0.00 | 0.03 | 0.00 | 85 | 1013.7 |
| 20260509061323 | 20 | 258 | 3.2 | 6.4 | 0.00 | 0.03 | 0.00 | 85 | 1013.8 |
| 20260509060322 | 20 | 241 | 1.6 | 4.8 | 0.00 | 0.03 | 0.00 | 85 | 1013.5 |
| 20260509055323 | 20 | 342 | 0.0 | 1.6 | 0.00 | 0.03 | 0.00 | 85 | 1013.5 |
| 20260509054322 | 20 | 43 | 3.2 | 4.8 | 0.00 | 0.03 | 0.00 | 84 | 1013.7 |
| 20260509052422 | 21 | 359 | 4.8 | 6.4 | 0.00 | 0.03 | 0.00 | 84 | 1013.4 |
| 20260509051423 | 21 | 90 | 0.0 | 1.6 | 0.00 | 0.03 | 0.00 | 84 | 1012.9 |
| 20260509045429 | 21 | 152 | 4.8 | 8.0 | 0.00 | 0.03 | 0.03 | 83 | 1012.4 |
| 20260509043430 | 21 | 128 | 1.6 | 3.2 | 0.00 | 0.03 | 0.03 | 81 | 1012.6 |
| 20260509042431 | 21 | 130 | 4.8 | 6.4 | 0.00 | 0.03 | 0.03 | 81 | 1012.6 |
| 20260509041431 | 21 | 138 | 4.8 | 6.4 | 0.00 | 0.03 | 0.03 | 81 | 1012.5 |
| 20260509040431 | 22 | 90 | 1.6 | 3.2 | 0.00 | 0.03 | 0.03 | 80 | 1012.7 |
| 20260509035429 | 22 | 90 | 3.2 | 4.8 | 0.00 | 0.03 | 0.03 | 80 | 1012.4 |
| 20260509034430 | 22 | 153 | 6.4 | 11.3 | 0.00 | 0.03 | 0.03 | 80 | 1012.2 |
| 20260509033431 | 22 | 166 | 8.0 | 12.9 | 0.00 | 0.03 | 0.03 | 80 | 1011.9 |
| 20260509032529 | 22 | 155 | 11.3 | 17.7 | 0.00 | 0.03 | 0.03 | 80 | 1011.2 |
| 20260509031530 | 22 | 183 | 6.4 | 9.7 | 0.00 | 0.03 | 0.03 | 79 | 1011.3 |
| 20260509030530 | 22 | 154 | 6.4 | 11.3 | 0.00 | 0.03 | 0.03 | 79 | 1011.3 |
| 20260509024630 | 22 | 144 | 4.8 | 11.3 | 0.00 | 0.03 | 0.03 | 79 | 1010.6 |
| 20260509023631 | 22 | 155 | 9.7 | 14.5 | 0.00 | 0.03 | 0.03 | 78 | 1010.2 |
| 20260509022631 | 22 | 164 | 6.4 | 12.9 | 0.00 | 0.03 | 0.03 | 77 | 1010.5 |
| 20260509020628 | 22 | 145 | 8.0 | 11.3 | 0.00 | 0.03 | 0.03 | 76 | 1010.6 |
| 20260509015728 | 22 | 137 | 6.4 | 8.0 | 0.00 | 0.03 | 0.03 | 76 | 1010.8 |
| 20260509014730 | 22 | 143 | 6.4 | 8.0 | 0.00 | 0.03 | 0.03 | 76 | 1010.9 |
| 20260509014628 | 22 | 135 | 4.8 | 6.4 | 0.00 | 0.03 | 0.03 | 76 | 1010.8 |
| 20260509013630 | 22 | 135 | 3.2 | 4.8 | 0.00 | 0.03 | 0.03 | 76 | 1010.9 |
| 20260509012648 | 22 | 135 | 3.2 | 6.4 | 0.00 | 0.03 | 0.03 | 75 | 1010.8 |
| 20260509011729 | 22 | 128 | 1.6 | 3.2 | 0.00 | 0.03 | 0.03 | 75 | 1010.7 |
| 20260509010730 | 22 | 151 | 1.6 | 4.8 | 0.00 | 0.03 | 0.03 | 75 | 1010.4 |
| 20260509005730 | 22 | 145 | 4.8 | 9.7 | 0.00 | 0.03 | 0.03 | 74 | 1010.2 |
| 20260509004828 | 23 | 106 | 4.8 | 9.7 | 0.00 | 0.03 | 0.03 | 74 | 1010.2 |
| 20260509003829 | 22 | 155 | 8.0 | 11.3 | 0.00 | 0.03 | 0.03 | 74 | 1010.0 |
| 20260509001831 | 23 | 193 | 6.4 | 9.7 | 0.00 | 0.03 | 0.03 | 74 | 1010.2 |
| 20260509000828 | 23 | 194 | 3.2 | 6.4 | 0.00 | 0.03 | 0.03 | 73 | 1010.3 |
| 20260508235828 | 23 | 187 | 6.4 | 8.0 | 0.00 | 0.03 | 0.03 | 72 | 1010.6 |
| 20260508234829 | 23 | 204 | 9.7 | 11.3 | 0.00 | 0.03 | 0.03 | 72 | 1010.6 |
| 20260508233828 | 23 | 221 | 4.8 | 8.0 | 0.00 | 0.03 | 0.03 | 72 | 1010.6 |
| 20260508232829 | 23 | 165 | 4.8 | 6.4 | 0.00 | 0.03 | 0.03 | 72 | 1010.6 |
| 20260508231829 | 23 | 170 | 6.4 | 8.0 | 0.00 | 0.03 | 0.03 | 71 | 1010.6 |
| 20260508230831 | 23 | 150 | 8.0 | 11.3 | 0.00 | 0.03 | 0.03 | 70 | 1010.7 |
| 20260508225842 | 23 | 193 | 8.0 | 12.9 | 0.00 | 0.03 | 0.03 | 69 | 1010.6 |
| 20260508224929 | 23 | 193 | 9.7 | 14.5 | 0.00 | 0.03 | 0.03 | 69 | 1010.5 |
| 20260508223929 | 24 | 139 | 8.0 | 16.1 | 0.00 | 0.03 | 0.03 | 67 | 1010.4 |
| 20260508222930 | 23 | 175 | 12.9 | 19.3 | 0.00 | 0.03 | 0.03 | 68 | 1010.3 |
| 20260508221929 | 23 | 164 | 11.3 | 17.7 | 0.00 | 0.03 | 0.03 | 69 | 1010.4 |
| 20260508220028 | 23 | 151 | 8.0 | 14.5 | 0.00 | 0.03 | 0.03 | 66 | 1010.7 |
| 20260508215030 | 23 | 175 | 11.3 | 17.7 | 0.00 | 0.03 | 0.03 | 66 | 1010.8 |
| 20260508214030 | 23 | 123 | 8.0 | 9.7 | 0.00 | 0.03 | 0.03 | 66 | 1011.0 |